EW9485 Weather Reports


Display with metric or nautical units.
time (UTC)temp
F
wind
direction
speed
MPH
gust
MPH
rain 1hr
in
rain 24hr
in
rain mn
in
humidity
%
barometer
mb
20260504050545 57 0 0.0 0.0 0.00 0.00 0.00 80 1018.6
20260504050106 57 0 0.0 0.0 0.00 0.00 0.00 80 1018.5
20260504045547 57 0 0.0 0.0 0.00 0.00 0.00 80 1018.5
20260504045048 57 0 0.0 0.0 0.00 0.00 0.00 79 1018.5
20260504044601 57 0 0.0 0.0 0.00 0.00 0.00 79 1018.6
20260504044048 58 0 0.0 0.0 0.00 0.00 0.00 78 1018.6
20260504043548 58 0 0.0 0.0 0.00 0.00 0.00 78 1018.7
20260504043059 58 0 0.0 0.0 0.00 0.00 0.00 78 1018.8
20260504042544 58 0 0.0 0.0 0.00 0.00 0.00 78 1018.8
20260504042043 58 0 0.0 2.0 0.00 0.00 0.00 78 1018.7
20260504041549 58 0 0.0 2.0 0.00 0.00 0.00 77 1018.7
20260504041043 58 0 1.0 3.0 0.00 0.00 0.00 76 1018.8
20260504040545 58 317 1.0 3.0 0.00 0.00 0.00 77 1018.9
20260504040048 58 317 1.0 2.0 0.00 0.00 0.00 77 1018.8
20260504035545 58 317 1.0 3.0 0.00 0.00 0.00 77 1018.8
20260504035043 58 317 1.0 3.0 0.00 0.00 0.00 77 1018.6
20260504034554 59 317 1.0 3.0 0.00 0.00 0.00 76 1018.6
20260504034045 59 317 1.0 3.0 0.00 0.00 0.00 75 1018.7
20260504033544 59 317 2.0 3.0 0.00 0.00 0.00 75 1018.7
20260504033056 59 317 1.0 3.0 0.00 0.00 0.00 75 1018.7
20260504032547 59 317 1.0 3.0 0.00 0.00 0.00 74 1018.7
20260504032045 60 317 2.0 3.0 0.00 0.00 0.00 74 1018.6
20260504031550 60 317 1.0 3.0 0.00 0.00 0.00 74 1018.7
20260504031046 60 317 1.0 3.0 0.00 0.00 0.00 73 1018.6
20260504030549 60 317 2.0 3.0 0.00 0.00 0.00 72 1018.6
20260504030054 60 316 1.0 3.0 0.00 0.00 0.00 71 1018.5
20260504025544 60 317 1.0 3.0 0.00 0.00 0.00 70 1018.5
20260504025044 61 317 1.0 3.0 0.00 0.00 0.00 70 1018.5
20260504024551 61 317 2.0 3.0 0.00 0.00 0.00 70 1018.6
20260504024044 61 317 2.0 3.0 0.00 0.00 0.00 69 1018.6
20260504023545 62 317 1.0 3.0 0.00 0.00 0.00 68 1018.6
20260504023050 62 317 1.0 4.0 0.00 0.00 0.00 68 1018.5
20260504022545 62 317 1.0 4.0 0.00 0.00 0.00 67 1018.4
20260504022047 62 317 2.0 4.0 0.00 0.00 0.00 67 1018.3
20260504021554 62 317 2.0 3.0 0.00 0.00 0.00 67 1018.3
20260504021046 62 317 2.0 3.0 0.00 0.00 0.00 66 1018.3
20260504020544 63 318 1.0 3.0 0.00 0.00 0.00 65 1018.2
20260504020047 64 319 1.0 4.0 0.00 0.00 0.00 64 1018.2
20260504015545 64 319 1.0 4.0 0.00 0.00 0.00 61 1018.1
20260504015047 65 319 2.0 3.0 0.00 0.00 0.00 60 1018.1
20260504014550 65 311 2.0 4.0 0.00 0.00 0.00 61 1018.2
20260504014044 65 312 1.0 4.0 0.00 0.00 0.00 60 1018.1
20260504013545 66 311 2.0 5.0 0.00 0.00 0.00 59 1018.0
20260504013051 66 309 2.0 5.0 0.00 0.00 0.00 58 1017.9
20260504012547 66 315 1.0 4.0 0.00 0.00 0.00 58 1017.9
20260504012044 67 316 2.0 5.0 0.00 0.00 0.00 59 1017.9
20260504011552 67 323 2.0 5.0 0.00 0.00 0.00 59 1017.9
20260504011044 67 315 2.0 5.0 0.00 0.00 0.00 58 1017.9
20260504010544 67 297 2.0 6.0 0.00 0.00 0.00 57 1017.7
20260504010101 68 288 1.0 7.0 0.00 0.00 0.00 56 1017.7
20260504005544 68 293 3.0 7.0 0.00 0.00 0.00 55 1017.7
20260504005044 68 296 3.0 7.0 0.00 0.00 0.00 55 1017.6
20260504004548 68 294 3.0 10.0 0.00 0.00 0.00 55 1017.5
20260504004049 68 258 3.0 11.0 0.00 0.00 0.00 54 1017.6
20260504003552 69 290 6.0 11.0 0.00 0.00 0.00 53 1017.4
20260504003058 69 300 5.0 10.0 0.00 0.00 0.00 54 1017.4
20260504002547 69 271 4.0 9.0 0.00 0.00 0.00 54 1017.5
20260504002048 69 275 4.0 9.0 0.00 0.00 0.00 54 1017.4
20260504001610 69 271 4.0 10.0 0.00 0.00 0.00 53 1017.4
20260504001048 69 293 5.0 10.0 0.00 0.00 0.00 54 1017.3
20260504000547 70 298 4.0 9.0 0.00 0.00 0.00 53 1017.3
20260504000056 70 290 4.0 11.0 0.00 0.00 0.00 54 1017.2
20260503235549 70 248 5.0 11.0 0.00 0.00 0.00 52 1017.2
20260503235050 70 277 5.0 11.0 0.00 0.00 0.00 51 1017.3
20260503234556 70 245 5.0 12.0 0.00 0.00 0.00 51 1017.2
20260503234047 71 263 5.0 12.0 0.00 0.00 0.00 50 1017.1
20260503233547 71 246 5.0 12.0 0.00 0.00 0.00 49 1017.3
20260503233056 71 227 8.0 12.0 0.00 0.00 0.00 49 1017.2
20260503232551 72 267 4.0 11.0 0.00 0.00 0.00 49 1017.2
20260503232045 72 283 6.0 12.0 0.00 0.00 0.00 47 1017.2
20260503231554 72 233 6.0 12.0 0.00 0.00 0.00 47 1017.3
20260503231045 73 269 5.0 12.0 0.00 0.00 0.00 48 1017.3
20260503230548 73 262 6.0 12.0 0.00 0.00 0.00 47 1017.3
20260503230051 73 286 7.0 13.0 0.00 0.00 0.00 49 1017.1
20260503225547 74 314 5.0 13.0 0.00 0.00 0.00 46 1017.2
20260503225048 74 266 5.0 10.0 0.00 0.00 0.00 45 1017.1
20260503224549 74 301 5.0 11.0 0.00 0.00 0.00 45 1017.1
20260503224048 74 269 5.0 13.0 0.00 0.00 0.00 45 1017.1
20260503223549 75 219 5.0 13.0 0.00 0.00 0.00 45 1017.1
20260503223057 75 237 7.0 12.0 0.00 0.00 0.00 44 1017.0
20260503222549 75 252 6.0 12.0 0.00 0.00 0.00 47 1017.1
20260503222047 75 265 4.0 9.0 0.00 0.00 0.00 44 1017.2
20260503221548 75 262 4.0 10.0 0.00 0.00 0.00 44 1017.1
20260503221050 75 252 7.0 14.0 0.00 0.00 0.00 43 1017.2
20260503220547 75 252 5.0 14.0 0.00 0.00 0.00 43 1017.3
20260503220105 75 265 9.0 14.0 0.00 0.00 0.00 41 1017.2
20260503215544 75 252 7.0 13.0 0.00 0.00 0.00 43 1017.3
20260503215044 75 232 8.0 16.0 0.00 0.00 0.00 42 1017.2
20260503214549 76 247 5.0 16.0 0.00 0.00 0.00 42 1017.2
20260503214049 77 226 7.0 16.0 0.00 0.00 0.00 39 1017.3
20260503213544 77 271 7.0 16.0 0.00 0.00 0.00 41 1017.3
20260503213053 76 232 7.0 16.0 0.00 0.00 0.00 39 1017.2
20260503212545 76 258 7.0 15.0 0.00 0.00 0.00 37 1017.3
20260503212045 76 208 9.0 15.0 0.00 0.00 0.00 38 1017.4
20260503211605 77 230 9.0 15.0 0.00 0.00 0.00 37 1017.4
20260503211049 77 216 7.0 15.0 0.00 0.00 0.00 39 1017.5
20260503210544 77 294 6.0 15.0 0.00 0.00 0.00 37 1017.6
20260503210049 78 227 4.0 11.0 0.00 0.00 0.00 39 1017.6
20260503205544 77 264 4.0 11.0 0.00 0.00 0.00 39 1017.6
20260503205044 77 217 3.0 11.0 0.00 0.00 0.00 41 1017.7
20260503204553 77 355 5.0 11.0 0.00 0.00 0.00 36 1018.0
20260503204043 78 171 3.0 9.0 0.00 0.00 0.00 39 1017.9
20260503203543 79 13 3.0 12.0 0.00 0.00 0.00 27 1017.9
20260503203047 78 331 7.0 12.0 0.00 0.00 0.00 28 1017.9
20260503202544 78 348 6.0 12.0 0.00 0.00 0.00 28 1018.1
20260503202047 78 28 6.0 12.0 0.00 0.00 0.00 27 1018.2
20260503201551 78 45 5.0 11.0 0.00 0.00 0.00 29 1018.2
20260503201046 77 352 2.0 9.0 0.00 0.00 0.00 35 1018.2
20260503200547 77 22 3.0 9.0 0.00 0.00 0.00 29 1018.2
20260503200052 77 48 4.0 15.0 0.00 0.00 0.00 29 1018.2
20260503195545 77 350 6.0 17.0 0.00 0.00 0.00 28 1018.3
20260503195042 77 342 10.0 17.0 0.00 0.00 0.00 29 1018.3
20260503194555 78 30 5.0 12.0 0.00 0.00 0.00 29 1018.2
20260503194044 77 329 6.0 16.0 0.00 0.00 0.00 28 1018.3
20260503193544 77 25 5.0 16.0 0.00 0.00 0.00 33 1018.3
20260503193057 78 12 8.0 16.0 0.00 0.00 0.00 29 1018.5
20260503192544 78 65 6.0 13.0 0.00 0.00 0.00 28 1018.5
20260503192044 78 18 8.0 13.0 0.00 0.00 0.00 27 1018.7
20260503191551 78 342 6.0 12.0 0.00 0.00 0.00 30 1018.8
20260503191046 77 5 8.0 13.0 0.00 0.00 0.00 27 1018.8
20260503190544 77 340 8.0 15.0 0.00 0.00 0.00 26 1019.0
20260503190050 77 301 9.0 20.0 0.00 0.00 0.00 26 1018.9
20260503185544 77 325 6.0 20.0 0.00 0.00 0.00 28 1019.0
20260503185044 78 48 6.0 20.0 0.00 0.00 0.00 29 1019.1
20260503184602 77 321 5.0 13.0 0.00 0.00 0.00 26 1019.3
20260503184042 77 355 6.0 15.0 0.00 0.00 0.00 28 1019.4
20260503183545 77 12 9.0 15.0 0.00 0.00 0.00 27 1019.6
20260503183105 77 321 5.0 14.0 0.00 0.00 0.00 28 1019.5
20260503182545 76 76 7.0 14.0 0.00 0.00 0.00 29 1019.5
20260503182044 76 28 6.0 14.0 0.00 0.00 0.00 29 1019.5
20260503181622 76 332 6.0 14.0 0.00 0.00 0.00 28 1019.5
20260503181044 77 15 8.0 13.0 0.00 0.00 0.00 27 1019.6
20260503180544 77 49 5.0 13.0 0.00 0.00 0.00 31 1019.5
20260503180120 76 22 6.0 11.0 0.00 0.00 0.00 29 1019.7
20260503175543 77 67 5.0 12.0 0.00 0.00 0.00 30 1019.7
20260503175043 76 36 3.0 12.0 0.00 0.00 0.00 30 1019.8
20260503174556 76 334 7.0 15.0 0.00 0.00 0.00 28 1019.9
20260503174045 77 13 6.0 15.0 0.00 0.00 0.00 29 1019.9
20260503173546 76 293 3.0 10.0 0.00 0.00 0.00 30 1020.1
20260503173059 75 360 4.0 15.0 0.00 0.00 0.00 30 1020.2
20260503172548 75 17 4.0 15.0 0.00 0.00 0.00 30 1020.3
20260503172048 76 5 7.0 15.0 0.00 0.00 0.00 31 1020.3
20260503171554 76 315 6.0 12.0 0.00 0.00 0.00 31 1020.3
20260503171048 75 302 4.0 12.0 0.00 0.00 0.00 31 1020.3
20260503170544 75 360 3.0 12.0 0.00 0.00 0.00 31 1020.3
20260503150548 71 21 8.0 16.0 0.00 0.00 0.00 35 1021.4
20260503150103 71 44 7.0 16.0 0.00 0.00 0.00 39 1021.3
20260503131044 61 355 7.0 12.0 0.00 0.09 0.00 59 1020.2
20260503130544 61 9 6.0 12.0 0.00 0.09 0.00 60 1020.2
20260503120105 53 355 3.0 8.0 0.00 0.13 0.00 75 1020.1
20260503110548 51 360 2.0 5.0 0.00 0.14 0.00 75 1019.7
20260503100106 52 355 2.0 5.0 0.00 0.51 0.00 73 1018.8
20260503081554 53 5 2.0 4.0 0.00 1.43 0.00 69 1018.7
20260503081048 54 360 2.0 4.0 0.00 1.43 0.00 69 1018.7
20260503080552 54 345 2.0 4.0 0.00 1.43 0.00 68 1018.7
20260503072547 56 347 1.0 3.0 0.00 1.57 0.00 63 1018.4
20260503072048 57 347 1.0 4.0 0.00 1.57 0.00 62 1018.4
20260503071557 57 347 1.0 4.0 0.00 1.57 0.00 62 1018.4
20260503071052 57 21 2.0 4.0 0.00 1.57 0.00 61 1018.3
20260503070547 57 5 2.0 4.0 0.00 1.57 0.00 61 1018.3